• In Belarus
  • List of Countries
  • For 7 days
  • Water Temperature
  • Weather Map
  • Weather Widgets
  • user-avatar
    Login

    Hourly Weather Wierzbiecin

    Today, 20 September, Friday

    Time Temperature Precipitation Wind Pressure Humidity
    00:00 +8°C° 0 mm 2 mps 764 mmHg 82%
    01:00 +8°C° 0 mm 2 mps 764 mmHg 84%
    02:00 +7°C° 0 mm 2 mps 764 mmHg 86%
    03:00 +7°C° 0 mm 2 mps 764 mmHg 88%
    04:00 +7°C° 0 mm 2 mps 763 mmHg 89%
    05:00 +7°C° 0 mm 2 mps 763 mmHg 89%
    06:00 +8°C° 0 mm 3 mps 763 mmHg 88%
    07:00 +8°C° 0 mm 3 mps 763 mmHg 88%
    08:00 +10°C° 0 mm 3 mps 763 mmHg 81%
    09:00 +12°C° 0 mm 4 mps 763 mmHg 74%
    10:00 +13°C° 0 mm 4 mps 763 mmHg 67%
    11:00 +13°C° 0 mm 4 mps 763 mmHg 68%
    12:00 +13°C° 0 mm 5 mps 763 mmHg 70%
    13:00 +13°C° 0 mm 5 mps 763 mmHg 71%
    14:00 +13°C° 0 mm 5 mps 762 mmHg 73%
    15:00 +13°C° 0 mm 4 mps 762 mmHg 74%
    16:00 +13°C° 0 mm 4 mps 762 mmHg 76%
    17:00 +13°C° 0 mm 4 mps 762 mmHg 79%
    18:00 +13°C° 0 mm 4 mps 761 mmHg 81%
    19:00 +13°C° 0 mm 3 mps 761 mmHg 84%
    20:00 +12°C° 0 mm 3 mps 761 mmHg 87%
    21:00 +11°C° 0 mm 3 mps 761 mmHg 91%
    22:00 +11°C° 0 mm 3 mps 761 mmHg 95%
    23:00 +10°C° 0 mm 3 mps 761 mmHg 95%

    Tomorrow, 21 September, Saturday

    Time Temperature Precipitation Wind Pressure Humidity
    00:00 +10°C° 0 mm 3 mps 761 mmHg 96%
    01:00 +10°C° 0 mm 3 mps 761 mmHg 97%
    02:00 +10°C° 0 mm 3 mps 761 mmHg 97%
    03:00 +10°C° 0 mm 3 mps 761 mmHg 97%
    04:00 +10°C° 0 mm 3 mps 760 mmHg 97%
    05:00 +10°C° 0 mm 3 mps 760 mmHg 96%
    06:00 +11°C° 0 mm 4 mps 760 mmHg 95%
    07:00 +11°C° 0 mm 4 mps 760 mmHg 93%
    08:00 +12°C° 0 mm 4 mps 760 mmHg 89%
    09:00 +13°C° 0 mm 4 mps 760 mmHg 85%
    10:00 +14°C° 0 mm 4 mps 760 mmHg 80%
    11:00 +16°C° 0 mm 3 mps 760 mmHg 74%
    12:00 +18°C° 0 mm 3 mps 760 mmHg 68%
    13:00 +19°C° 0 mm 3 mps 760 mmHg 63%
    14:00 +19°C° 0 mm 3 mps 760 mmHg 62%
    15:00 +19°C° 0 mm 3 mps 759 mmHg 62%
    16:00 +19°C° 0 mm 2 mps 759 mmHg 61%
    17:00 +18°C° 0 mm 2 mps 759 mmHg 69%
    18:00 +16°C° 0 mm 1 mps 759 mmHg 76%
    19:00 +13°C° 0 mm 0 mps 759 mmHg 83%
    20:00 +14°C° 0 mm 1 mps 759 mmHg 84%
    21:00 +13°C° 0 mm 1 mps 759 mmHg 85%
    22:00 +13°C° 0 mm 1 mps 759 mmHg 86%
    23:00 +13°C° 0 mm 1 mps 759 mmHg 87%

    Day after tomorrow, 22 September, Sunday

    Time Temperature Precipitation Wind Pressure Humidity
    00:00 +12°C° 0 mm 1 mps 759 mmHg 87%
    01:00 +12°C° 0 mm 2 mps 758 mmHg 88%
    02:00 +12°C° 0 mm 2 mps 758 mmHg 88%
    03:00 +12°C° 0 mm 2 mps 758 mmHg 88%
    04:00 +10°C° 0 mm 2 mps 758 mmHg 88%
    05:00 +12°C° 0 mm 2 mps 757 mmHg 86%
    06:00 +12°C° 0 mm 2 mps 757 mmHg 84%
    07:00 +12°C° 0 mm 2 mps 757 mmHg 82%
    08:00 +15°C° 0 mm 2 mps 757 mmHg 73%
    09:00 +17°C° 0 mm 2 mps 757 mmHg 65%
    10:00 +19°C° 0 mm 2 mps 757 mmHg 56%
    11:00 +20°C° 0 mm 2 mps 757 mmHg 51%
    12:00 +21°C° 0 mm 3 mps 756 mmHg 46%
    13:00 +22°C° 0 mm 3 mps 756 mmHg 42%
    14:00 +22°C° 0 mm 3 mps 756 mmHg 43%
    15:00 +22°C° 0 mm 3 mps 755 mmHg 45%
    16:00 +22°C° 0 mm 3 mps 755 mmHg 47%
    17:00 +20°C° 0 mm 3 mps 755 mmHg 53%
    18:00 +18°C° 0 mm 3 mps 754 mmHg 59%
    19:00 +16°C° 0 mm 3 mps 754 mmHg 65%
    20:00 +14°C° 0 mm 3 mps 754 mmHg 67%
    21:00 +14°C° 0 mm 3 mps 754 mmHg 69%
    22:00 +13°C° 0 mm 3 mps 754 mmHg 70%
    23:00 +13°C° 0 mm 3 mps 754 mmHg 70%

    23 September, Monday

    Time Temperature Precipitation Wind Pressure Humidity
    00:00 +12°C° 0 mm 3 mps 753 mmHg 69%
    01:00 +12°C° 0 mm 3 mps 753 mmHg 68%
    02:00 +12°C° 0 mm 3 mps 753 mmHg 67%
    03:00 +11°C° 0 mm 3 mps 753 mmHg 66%
    04:00 +11°C° 0 mm 3 mps 753 mmHg 66%
    05:00 +11°C° 0 mm 3 mps 753 mmHg 67%
    06:00 +11°C° 0 mm 3 mps 753 mmHg 68%
    07:00 +12°C° 0 mm 3 mps 752 mmHg 69%
    08:00 +14°C° 0 mm 4 mps 752 mmHg 64%
    09:00 +17°C° 0 mm 4 mps 753 mmHg 58%
    10:00 +20°C° 0 mm 4 mps 753 mmHg 53%
    11:00 +21°C° 0 mm 4 mps 752 mmHg 50%
    12:00 +22°C° 0 mm 4 mps 752 mmHg 47%
    13:00 +22°C° 0 mm 3 mps 752 mmHg 44%
    14:00 +22°C° 0 mm 3 mps 752 mmHg 45%
    15:00 +22°C° 0 mm 3 mps 751 mmHg 47%
    16:00 +23°C° 0 mm 2 mps 751 mmHg 48%
    17:00 +20°C° 0 mm 2 mps 751 mmHg 53%
    18:00 +18°C° 0 mm 2 mps 751 mmHg 59%
    19:00 +16°C° 0 mm 2 mps 751 mmHg 64%
    20:00 +16°C° 0 mm 2 mps 752 mmHg 64%
    21:00 +15°C° 0 mm 2 mps 752 mmHg 65%
    22:00 +14°C° 0 mm 1 mps 752 mmHg 65%
    23:00 +14°C° 0 mm 1 mps 752 mmHg 66%

    24 September, Tuesday

    Time Temperature Precipitation Wind Pressure Humidity
    00:00 +13°C° 0 mm 1 mps 752 mmHg 68%
    01:00 +13°C° 0 mm 1 mps 752 mmHg 69%
    02:00 +13°C° 0 mm 1 mps 752 mmHg 71%
    03:00 +12°C° 0 mm 1 mps 752 mmHg 73%
    04:00 +12°C° 0 mm 1 mps 752 mmHg 74%
    05:00 +12°C° 0 mm 1 mps 752 mmHg 74%
    06:00 +12°C° 0 mm 0 mps 753 mmHg 74%
    07:00 +12°C° 0 mm 0 mps 753 mmHg 74%
    08:00 +14°C° 0 mm 0 mps 753 mmHg 67%
    09:00 +16°C° 0 mm 0 mps 753 mmHg 60%
    10:00 +18°C° 0 mm 0 mps 753 mmHg 53%
    11:00 +19°C° 0 mm 0 mps 753 mmHg 50%
    12:00 +20°C° 0 mm 0 mps 753 mmHg 47%
    13:00 +21°C° 0 mm 0 mps 753 mmHg 44%
    14:00 +21°C° 0 mm 0 mps 753 mmHg 46%
    15:00 +23°C° 0 mm 1 mps 752 mmHg 47%
    16:00 +22°C° 0 mm 1 mps 752 mmHg 49%
    17:00 +20°C° 0 mm 1 mps 752 mmHg 55%
    18:00 +19°C° 0 mm 1 mps 752 mmHg 61%
    19:00 +16°C° 0 mm 1 mps 752 mmHg 68%
    20:00 +16°C° 0 mm 1 mps 752 mmHg 70%
    21:00 +16°C° 0 mm 2 mps 751 mmHg 73%
    22:00 +15°C° 0 mm 2 mps 751 mmHg 76%
    23:00 +15°C° 0.2 mm 2 mps 751 mmHg 80%

    25 September, Wednesday

    Time Temperature Precipitation Wind Pressure Humidity
    00:00 +15°C° 0.2 mm 2 mps 750 mmHg 85%
    01:00 +15°C° 0.2 mm 2 mps 750 mmHg 90%
    02:00 +15°C° 0.2 mm 2 mps 750 mmHg 91%
    03:00 +15°C° 0.2 mm 2 mps 749 mmHg 93%
    04:00 +15°C° 0.2 mm 2 mps 749 mmHg 94%
    05:00 +14°C° 0.2 mm 3 mps 748 mmHg 93%
    06:00 +14°C° 0.2 mm 3 mps 748 mmHg 92%
    07:00 +14°C° 0.2 mm 3 mps 748 mmHg 91%
    08:00 +14°C° 0.2 mm 4 mps 748 mmHg 88%
    09:00 +14°C° 0.2 mm 4 mps 748 mmHg 85%
    10:00 +15°C° 0.2 mm 4 mps 748 mmHg 82%
    11:00 +15°C° 0.2 mm 4 mps 748 mmHg 82%
    12:00 +16°C° 0.2 mm 5 mps 747 mmHg 83%
    13:00 +16°C° 0.2 mm 5 mps 747 mmHg 83%
    14:00 +17°C° 0.4 mm 4 mps 747 mmHg 84%
    15:00 +15°C° 0.4 mm 4 mps 747 mmHg 85%
    16:00 +16°C° 0.4 mm 3 mps 747 mmHg 87%
    17:00 +14°C° 0.3 mm 3 mps 747 mmHg 87%
    18:00 +13°C° 0.3 mm 3 mps 747 mmHg 87%
    19:00 +13°C° 0.3 mm 3 mps 747 mmHg 88%
    20:00 +12°C° 0 mm 3 mps 748 mmHg 87%
    21:00 +12°C° 0 mm 3 mps 748 mmHg 87%
    22:00 +11°C° 0 mm 3 mps 748 mmHg 87%
    23:00 +11°C° 0 mm 3 mps 748 mmHg 87%
    Show more